Probability
0 0 0 0 0 0 0 0 0 0 0 0 0 0 3 0 0 0 0 0 0 0 0 0 0 0 0 0 0 0 0 0 0 0 0 0 0 0 0 0 0 0 0
0 0 0 0 0 0 0 0 0 0 0 0 0 0 0 0 0 0 0 0 0 0 0 0 0 0 0 0 0 0 0 0 0 0 0 0 0 0 0 0 0 0 0
0 0 0 0 0 0 0 0 0 0 0 0 0 0 0 0 0 0 0 0 0 0 0 0 0 0 0 0 0 0 0 0 0 0 0 0 0 0 0 0 0 0 0
0 0 0 0 0 0 0 0 0 0 0 0 0 0 0 0 0 0 0 0 0 0 0 0 0 0 0 0 0 0 0 0 0 0 0 0 0 0 0 0 0 0 0
0 0 0 0 0 0 0 0 0 0 0 0 0 0 0 0 0 0 0 0 0 0 0 0 0 0 0 0 0 0 0 0 0 0 0 0 0 0 0 0 0 0 0
0 0 0 0 0 0 0 0 0 0 0 0 0 0 0 0 0 0 0 0 0 0 0 0 0 0 0 0 0 0 0 0 0 0 0 0 0 0 0 0 0 0 0
0 0 0 0 0 0 0 0 0 0 0 0 0 0 0 0 0 0 0 0 0 0 0 0 0 0 0 0 0 0 0 0 0 0 0 0 0 0 0 0 0 0 0
0 0 0 0 0 0 0 0 0 0 0 0 0 0 0 0 0 0 0 0 0 0 0 0 0 0 0 0 0 0 0 0 0 0 0 0 0 0 0 0 0 0 0
0 0 0 0 0 0 0 0 0 0 0 0 0 0 0 0 0 0 0 0 0 0 0 0 0 0 0 0 0 0 0 0 0 0 0 0 0 0 0 0 0 0 0
0 0 0 0 0 0 0 0 0 0 0 0 0 0 0 0 0 0 0 0 0 0 0 0 0 0 0 0 0 0 0 0 0 0 0 0 0 0 0 0 0 0 0
0 0 0 0 0 0 0 0 0 0 0 0 0 0 0 0 0 0 0 0 0 0 0 0 0 0 0 0 0 0 0 0 0 0 0 0 0 0 0 0 0 0 0
0 0 0 0 0 0 0 0 0 0 0 0 0 0 0 0 0 0 0 0 0 0 0 0 0 0 0 0 0 0 0 0 0 0 0 0 0 0 0 0 0 0 0
0 0 0 0 0 0 0 0 0 0 0 0 0 0 0 0 0 0 0 0 0 0 0 0 0 0 0 0 0 0 0 0 0 0 0 0 0 0 0 0 0 0 0
0 0 0 0 0 0 0 0 0 0 0 0 0 0 0 0 0 0 0 0 0 0 0 0 0 0 0 0 0 0 0 0 0 0 0 0 0 0 0 0 0 0 0
0 0 0 0 0 0 0 0 0 0 0 0 0 0 0 0 0 0 0 0 0 0 0 0 0 0 0 0 0 0 0 0 0 0 0 0 0 0 0 0 0 0 0
0 0 0 0 0 0 0 0 0 0 0 0 0 0 0 0 0 0 0 0 0 0 0 0 0 0 0 0 0 0 0 0 0 0 0 0 0 0 0 0 0 0 0
0 0 0 0 0 0 0 0 0 0 0 0 0 0 0 0 0 0 0 0 0 0 0 0 0 0 0 0 0 0 0 0 0 0 0 0 0 0 0 0 0 0 0
0 0 0 0 0 0 0 0 0 0 0 0 0 0 0 0 0 0 0 0 0 0 0 0 0 0 0 0 0 0 0 0 0 0 0 0 0 0 0 0 0 0 0
0 0 0 0 0 0 0 0 0 0 0 0 0 0 0 0 0 0 0 0 0 0 0 0 0 0 0 0 0 0 0 0 0 0 0 0 0 0 0 0 0 0 0
0 0 0 0 0 0 0 0 0 0 0 0 0 0 0 0 0 0 0 0 0 0 0 0 0 0 0 0 0 0 0 0 0 0 0 0 0 0 0 0 0 0 0
0 0 0 0 0 0 0 0 0 0 0 0 0 0 0 0 0 0 0 0 0 0 0 0 0 0 0 0 0 0 0 0 0 0 0 0 0 0 0 0 0 0 0
0 0 0 0 0 0 0 0 0 0 0 0 0 0 0 0 0 0 0 0 0 0 0 0 0 0 0 0 0 0 0 0 0 0 0 0 0 0 0 0 0 0 0
0 0 0 0 0 0 0 0 0 0 0 0 0 0 0 0 0 0 0 0 0 0 0 0 0 0 0 0 0 0 0 0 0 0 0 0 0 0 0 0 0 0 0
0 0 0 0 0 0 0 0 0 0 0 0 0 0 0 0 0 0 0 0 0 0 0 0 0 0 0 0 0 0 0 0 0 0 0 0 0 0 0 0 0 0 0
0 0 0 0 0 0 0 0 0 0 0 0 0 0 0 0 0 0 0 0 0 0 0 0 0 0 0 0 0 0 0 0 0 0 0 0 0 0 0 0 0 0 0
0 0 0 0 0 0 0 0 0 0 0 0 0 0 0 0 0 0 0 0 0 0 0 0 0 0 0 0 0 0 0 0 0 0 0 0 0 0 0 0 0 0 0
Height
5744 5746 5749 5752 5754 5757 5759 5761 5763 5764 5766 5767 5768 5769 5770 5770 5770 5769 5769 5768 5767 5766 5765 5763 5762 5760 5758 5756 5753 5751 5749 5746 5744 5741 5739 5736 5733 5731 5728 5726 5724 5722 5720
5737 5739 5742 5744 5747 5750 5752 5754 5755 5757 5759 5760 5761 5762 5762 5762 5762 5761 5761 5760 5759 5758 5756 5755 5753 5751 5749 5747 5745 5742 5740 5737 5734 5732 5729 5727 5725 5722 5719 5716 5713 5711 5709
5729 5732 5735 5737 5740 5742 5744 5746 5748 5750 5751 5752 5753 5754 5754 5754 5754 5753 5753 5751 5750 5749 5747 5746 5744 5743 5741 5738 5736 5733 5731 5728 5725 5721 5719 5717 5715 5712 5710 5706 5702 5699 5696
5721 5724 5727 5730 5733 5735 5737 5739 5740 5742 5744 5745 5745 5746 5746 5746 5746 5745 5744 5743 5741 5740 5738 5737 5735 5734 5732 5729 5727 5724 5722 5719 5716 5712 5709 5706 5702 5700 5699 5697 5692 5688 5685
5713 5717 5720 5723 5725 5727 5729 5731 5733 5734 5736 5737 5738 5738 5738 5738 5738 5737 5736 5735 5733 5731 5730 5728 5726 5725 5723 5720 5718 5715 5712 5709 5706 5703 5699 5696 5692 5688 5686 5685 5683 5679 5674
5705 5709 5712 5714 5717 5719 5721 5723 5725 5727 5728 5729 5730 5730 5730 5730 5730 5729 5728 5726 5724 5723 5721 5719 5717 5715 5713 5711 5708 5706 5703 5700 5696 5693 5689 5685 5682 5679 5676 5674 5671 5668 5665
5697 5700 5703 5706 5709 5711 5713 5715 5717 5719 5720 5721 5722 5722 5722 5722 5721 5721 5719 5718 5716 5714 5712 5710 5708 5706 5704 5702 5699 5696 5693 5690 5687 5683 5679 5676 5672 5669 5666 5664 5661 5658 5655
5688 5692 5695 5698 5701 5703 5705 5707 5709 5710 5712 5713 5713 5713 5713 5713 5713 5712 5710 5709 5707 5705 5703 5701 5699 5697 5695 5693 5690 5687 5684 5681 5677 5674 5670 5667 5664 5661 5658 5655 5652 5650 5648
5680 5684 5687 5690 5692 5695 5697 5699 5700 5702 5703 5704 5704 5705 5704 5704 5704 5703 5701 5700 5698 5696 5694 5692 5690 5688 5686 5684 5681 5678 5675 5672 5669 5665 5662 5659 5656 5653 5650 5647 5643 5641 5638
5672 5675 5678 5681 5684 5686 5688 5690 5692 5693 5694 5695 5696 5696 5695 5695 5694 5693 5692 5690 5688 5686 5685 5683 5681 5679 5677 5675 5672 5669 5667 5664 5661 5658 5655 5651 5648 5645 5642 5639 5635 5632 5629
5663 5666 5670 5672 5675 5677 5679 5681 5683 5684 5685 5686 5687 5687 5687 5686 5685 5684 5683 5681 5679 5677 5676 5674 5672 5670 5668 5666 5663 5661 5658 5656 5653 5650 5647 5644 5640 5637 5634 5630 5627 5624 5621
5655 5658 5661 5664 5666 5669 5670 5672 5674 5675 5676 5677 5677 5677 5677 5677 5676 5675 5673 5672 5670 5668 5666 5665 5663 5661 5659 5657 5655 5652 5650 5647 5645 5642 5639 5636 5633 5629 5626 5623 5620 5617 5614
5647 5650 5652 5655 5658 5660 5662 5663 5665 5666 5667 5667 5668 5668 5668 5667 5667 5665 5664 5662 5660 5659 5657 5655 5654 5652 5650 5648 5646 5644 5642 5640 5637 5634 5632 5628 5625 5622 5619 5616 5613 5610 5607
5638 5642 5644 5647 5649 5651 5653 5654 5656 5657 5658 5658 5658 5659 5659 5658 5657 5656 5654 5653 5651 5650 5648 5647 5645 5644 5642 5640 5638 5636 5634 5632 5629 5627 5624 5621 5618 5615 5612 5609 5606 5603 5601
5630 5633 5636 5638 5641 5643 5644 5646 5647 5648 5649 5649 5650 5650 5649 5649 5648 5647 5646 5644 5643 5641 5640 5638 5637 5635 5634 5632 5630 5628 5626 5624 5622 5619 5617 5614 5611 5608 5605 5602 5600 5597 5595
5622 5625 5628 5630 5632 5634 5636 5637 5638 5639 5640 5640 5641 5641 5641 5640 5640 5639 5637 5636 5635 5634 5632 5630 5629 5627 5625 5624 5622 5620 5618 5617 5615 5613 5610 5608 5605 5602 5599 5596 5593 5591 5588
5613 5616 5619 5622 5624 5626 5627 5628 5629 5630 5631 5632 5632 5632 5632 5632 5632 5631 5630 5629 5628 5626 5625 5623 5621 5619 5617 5615 5614 5612 5611 5609 5607 5605 5603 5601 5598 5596 5593 5590 5588 5585 5582
5605 5608 5610 5613 5615 5617 5619 5620 5621 5622 5623 5624 5624 5624 5625 5625 5624 5623 5623 5622 5621 5619 5618 5616 5614 5612 5611 5609 5607 5605 5604 5602 5600 5598 5596 5594 5592 5589 5587 5584 5582 5579 5577
5597 5599 5602 5604 5606 5608 5610 5612 5613 5613 5614 5615 5616 5616 5617 5617 5617 5617 5616 5615 5614 5612 5611 5609 5607 5606 5604 5602 5601 5599 5597 5596 5593 5591 5589 5587 5585 5583 5580 5578 5576 5574 5572
5588 5591 5593 5595 5598 5600 5601 5603 5604 5605 5606 5607 5608 5609 5609 5610 5610 5609 5609 5608 5607 5606 5604 5603 5601 5600 5598 5596 5594 5593 5591 5589 5587 5585 5583 5581 5579 5577 5574 5573 5571 5569 5567
5579 5582 5584 5587 5589 5591 5593 5595 5596 5597 5598 5599 5600 5601 5602 5602 5602 5602 5602 5601 5600 5599 5598 5597 5595 5593 5592 5590 5588 5587 5586 5584 5582 5579 5578 5575 5573 5571 5570 5568 5566 5565 5563
5571 5573 5576 5578 5580 5582 5584 5586 5588 5589 5590 5591 5592 5593 5594 5594 5595 5595 5594 5594 5593 5593 5591 5590 5588 5587 5586 5584 5582 5581 5580 5578 5576 5574 5572 5570 5568 5566 5565 5563 5562 5560 5559
5563 5565 5567 5569 5571 5574 5576 5578 5579 5581 5582 5583 5585 5586 5587 5587 5587 5587 5587 5587 5586 5586 5585 5584 5582 5581 5580 5578 5576 5575 5574 5572 5571 5569 5567 5565 5564 5562 5560 5559 5557 5556 5555
5555 5557 5559 5561 5563 5565 5567 5569 5571 5572 5574 5575 5577 5578 5579 5580 5580 5580 5580 5580 5580 5579 5578 5577 5576 5575 5574 5573 5571 5570 5568 5567 5565 5564 5562 5560 5559 5557 5556 5554 5553 5552 5551
5547 5549 5551 5553 5555 5557 5559 5560 5562 5564 5565 5567 5569 5570 5572 5573 5574 5574 5574 5574 5573 5573 5572 5571 5570 5569 5568 5567 5566 5564 5563 5561 5560 5559 5557 5555 5554 5553 5551 5550 5549 5548 5546
5539 5541 5543 5545 5547 5549 5550 5552 5554 5555 5558 5560 5561 5563 5564 5566 5567 5567 5567 5567 5566 5566 5565 5564 5563 5563 5562 5561 5560 5559 5557 5556 5555 5554 5552 5551 5549 5548 5547 5546 5544 5543 5542
Wind_Speed
32 32 32 32 31 31 30 30 31 31 31 31 31 32 32 32 33 33 33 34 35 35 36 36 36 36 36 36 37 36 36 37 37 38 38 38 39 39 40 40 41 42 43
33 32 32 31 31 30 30 30 30 31 31 31 31 31 32 32 32 33 33 34 35 35 35 36 36 36 36 37 37 37 37 38 39 39 39 39 39 40 40 41 42 43 44
33 33 32 31 31 31 30 30 30 31 31 31 31 31 32 32 32 32 33 34 35 35 36 36 36 36 36 37 37 37 38 39 39 40 40 40 40 40 40 41 43 43 43
34 33 32 32 31 31 31 31 31 31 31 31 31 31 31 31 32 32 33 33 34 35 36 36 36 36 37 37 37 38 39 39 39 40 41 41 42 42 41 40 40 41 41
34 34 33 32 32 32 32 31 31 31 31 31 31 31 31 31 31 32 32 33 34 34 35 36 36 36 36 37 37 38 38 39 39 40 40 41 41 41 41 39 38 39 40
34 34 33 33 32 32 32 32 31 31 31 31 31 31 32 31 31 32 32 33 34 34 35 36 36 36 36 37 37 37 38 38 38 39 40 40 39 38 38 38 38 38 38
34 33 33 33 33 32 32 32 32 32 32 32 32 32 32 32 32 32 33 33 34 34 35 35 36 35 35 35 36 37 37 37 38 38 38 38 37 36 36 36 36 36 36
34 33 33 32 32 32 33 33 33 33 32 32 32 33 33 33 33 33 33 34 34 34 35 35 35 34 34 34 35 36 36 37 37 37 36 35 35 34 35 35 35 34 34
33 33 33 32 32 32 32 33 33 33 33 32 32 33 33 33 34 34 34 34 34 34 34 34 33 34 34 34 35 35 36 36 35 34 34 34 34 34 34 34 35 35 34
33 33 33 33 32 32 32 33 33 33 33 33 33 33 33 33 34 34 33 33 34 33 33 34 34 34 34 35 35 35 35 35 34 33 33 33 34 34 34 35 35 34 34
33 33 33 33 33 33 33 33 32 33 33 33 33 33 33 33 33 33 33 33 33 33 34 34 34 34 34 34 34 34 34 33 33 33 33 34 34 34 34 34 33 32 32
32 32 32 32 32 32 32 32 32 32 32 33 33 33 33 33 33 33 33 33 33 33 33 33 33 33 33 33 33 33 32 32 32 32 33 33 33 33 33 32 31 30 31
32 32 32 32 31 31 32 32 32 32 32 33 33 32 33 33 33 33 33 33 33 33 32 32 32 32 32 32 32 32 31 31 31 31 31 31 31 31 31 30 30 30 30
32 32 32 31 31 31 31 31 31 32 32 32 32 32 32 33 32 33 33 32 31 30 30 31 31 32 32 31 31 31 31 30 30 30 29 30 29 29 29 29 29 29 29
32 32 32 32 31 31 30 30 31 31 31 32 31 31 31 31 31 31 31 30 29 29 29 30 30 31 31 31 31 30 30 29 29 29 29 29 29 28 29 28 28 28 28
33 33 32 32 31 31 30 30 30 30 31 31 31 31 31 30 30 30 30 29 29 29 29 29 30 30 31 30 30 30 29 29 28 28 28 29 29 28 28 28 27 28 28
34 33 32 32 31 31 30 30 30 30 30 30 30 30 30 29 29 28 28 27 28 28 27 27 28 28 28 28 28 29 28 28 28 28 28 28 28 28 28 28 28 28 27
33 33 32 31 31 31 31 30 30 30 30 29 29 28 28 28 27 27 27 27 26 27 27 27 27 26 26 27 27 27 27 28 27 27 27 28 27 27 28 28 27 25 24
33 33 33 32 31 30 30 30 30 30 29 29 28 27 27 26 26 26 26 26 26 26 26 26 26 25 25 26 26 26 27 27 27 27 27 28 27 27 27 26 24 23 22
32 32 32 32 31 31 30 29 29 29 28 28 28 27 26 25 25 25 25 25 25 25 25 25 25 25 25 25 25 25 26 26 26 26 27 26 26 25 24 23 22 21 21
31 32 32 32 32 31 30 30 29 28 28 28 28 27 26 26 25 25 25 25 25 25 26 25 25 25 24 24 24 25 25 25 25 25 24 24 23 22 22 22 20 20 20
30 31 31 32 32 32 31 30 29 28 28 28 27 26 26 26 25 25 25 25 25 25 25 25 24 23 23 23 24 24 24 23 23 23 22 22 21 21 21 20 19 19 19
29 29 30 31 31 31 31 30 29 29 29 28 27 26 26 25 25 24 25 25 25 24 24 23 23 23 23 23 23 23 23 23 23 23 22 21 20 19 20 20 19 19 18
29 29 29 29 30 30 30 30 30 29 29 28 27 26 25 25 24 24 24 25 24 23 23 22 22 22 22 22 22 22 22 22 23 22 20 20 19 19 20 19 18 18 18
28 28 29 29 28 28 29 30 30 30 29 28 27 26 25 25 24 24 24 24 24 23 22 22 21 21 21 22 22 22 22 22 21 20 20 20 19 19 19 18 18 18 18
28 28 27 28 27 27 27 28 28 28 28 28 27 26 25 25 24 24 23 23 22 22 22 22 22 22 22 22 22 22 21 20 20 19 19 20 20 19 18 18 17 17 18
Wind_Direction
241 243 244 245 246 248 248 249 250 250 252 255 258 260 263 265 268 270 271 272 274 275 277 278 279 280 281 282 282 283 283 284 286 287 287 287 285 284 283 282 281 280 279
239 241 244 245 246 247 249 250 250 251 253 256 258 261 263 266 268 270 272 274 275 276 277 278 279 280 281 282 282 283 284 286 287 287 287 287 287 285 284 283 282 281 280
238 240 242 244 245 247 248 250 251 252 254 256 258 260 264 266 269 272 274 276 276 277 278 279 279 280 282 283 283 284 286 287 288 289 289 288 287 286 285 285 284 283 282
238 240 241 243 244 246 248 250 251 252 254 256 259 261 264 266 270 273 275 277 277 278 278 279 280 281 282 283 284 285 287 288 289 290 290 290 290 289 287 287 286 284 282
238 239 241 243 244 246 248 250 251 253 255 257 260 262 265 267 270 273 275 277 279 278 278 279 279 281 282 284 285 286 287 288 289 290 291 291 290 290 290 288 287 286 285
238 239 240 242 244 246 248 249 251 253 256 257 260 263 265 268 270 273 275 277 278 278 278 278 279 281 283 285 286 287 288 289 291 291 291 291 291 290 290 290 290 289 289
237 239 241 243 244 246 248 250 252 254 256 258 261 263 266 268 271 273 275 277 277 278 278 279 280 282 284 285 287 288 290 291 293 293 292 292 292 291 291 291 292 293 292
237 238 240 242 244 246 248 250 252 254 257 259 262 264 266 268 271 273 276 277 278 279 278 279 281 282 284 285 287 289 290 292 293 294 293 293 292 292 293 294 294 293 293
237 238 240 242 244 245 247 250 253 256 257 260 262 264 266 268 270 273 276 278 278 279 278 279 281 282 283 285 287 289 291 292 293 293 293 293 292 293 294 294 295 295 294
237 239 240 242 244 246 248 251 253 256 257 260 262 264 266 268 270 273 276 278 279 278 278 279 280 282 283 285 287 289 290 291 292 292 293 293 293 294 294 294 295 294 293
236 238 241 243 245 247 249 251 253 255 257 260 262 264 266 268 270 272 275 277 278 278 278 279 280 282 283 284 286 288 289 290 290 291 293 293 294 293 293 294 294 293 293
235 237 239 242 245 248 250 251 253 255 258 260 262 264 265 268 270 272 275 277 278 278 277 278 279 281 282 284 286 287 288 289 290 291 292 294 295 294 294 294 293 293 293
235 237 239 242 245 247 249 251 254 255 257 259 261 263 265 267 270 272 274 276 277 277 277 277 279 281 282 284 285 287 288 289 290 291 293 294 295 295 295 295 294 293 294
234 236 238 242 245 248 249 251 253 255 257 259 261 264 266 268 269 272 274 275 275 276 276 277 278 280 281 283 285 286 287 288 290 291 292 292 294 295 296 296 295 294 293
235 237 240 243 245 247 249 251 253 255 257 258 261 263 265 268 270 272 273 273 274 275 277 278 279 280 281 282 284 284 286 287 289 290 291 292 294 295 296 296 295 294 293
237 239 241 244 245 247 249 252 254 256 257 259 261 263 265 267 269 271 271 272 273 275 279 279 279 280 281 282 283 283 285 286 288 289 289 291 293 294 295 297 296 296 295
238 239 241 243 244 246 249 252 254 255 258 259 261 262 264 267 269 271 270 270 273 275 277 280 281 281 281 281 281 282 284 286 288 289 290 291 292 292 293 295 296 296 296
239 240 240 242 243 246 249 252 253 255 256 258 260 262 263 265 267 269 269 271 274 275 277 280 282 281 281 281 281 283 284 286 288 289 289 290 292 292 292 293 294 295 295
241 241 242 241 242 245 248 251 253 254 255 256 258 260 262 264 266 268 268 271 273 275 279 281 283 282 281 281 282 283 285 287 289 289 289 290 291 293 293 292 292 292 293
241 241 241 242 244 246 247 249 251 252 254 255 257 259 261 263 265 266 267 270 274 276 279 281 281 282 279 280 282 285 288 289 289 289 289 291 292 292 292 292 292 291 293
242 242 243 244 246 247 248 249 250 250 252 254 256 258 259 262 265 265 266 269 273 276 279 281 281 280 281 282 283 286 289 290 290 291 291 292 293 293 294 293 291 291 292
244 244 244 246 247 248 249 249 249 248 249 252 255 256 257 260 263 266 266 267 271 276 279 280 280 280 283 285 285 286 288 290 291 292 292 291 291 294 292 292 291 291 291
244 245 246 246 246 248 248 249 248 248 249 249 252 254 256 259 261 264 267 269 272 275 278 279 279 281 283 287 286 285 286 287 290 291 290 289 289 291 292 293 293 291 290
245 245 246 246 247 248 248 248 248 248 248 247 248 251 254 257 260 264 268 270 272 274 276 276 277 280 281 283 284 284 285 287 288 288 287 287 288 290 292 294 293 291 291
244 244 245 246 247 248 248 248 248 248 247 246 246 248 250 254 259 263 267 269 270 271 274 274 274 276 278 280 282 285 284 286 286 285 288 290 291 291 291 290 289 288 288
245 244 244 245 246 246 246 246 246 246 246 246 246 247 250 253 257 261 265 267 270 272 272 272 274 275 276 279 281 283 283 283 282 283 287 289 289 288 288 288 290 290 290